Vertical_Velocity
-1 -1 -0 -1 -1 -1 -0 -1 -2 -5 -0 -2 -2 -2 -4 -3 -2 -1 -0 0 -0 2 2 -1 1 1 1 2 2 2 1 -1 -2 -3 -3 -1 -3 -2 -2 -2 -1 -2 -2 -3
-1 -2 -2 -2 -2 -2 -2 -2 1 1 -4 1 -2 -0 0 2 3 2 2 -0 -0 -1 -2 0 -0 -0 2 2 1 -1 -1 -1 -1 0 -1 -1 -2 -3 -2 -2 -4 -2 -2 -2
0 -1 -1 0 -0 -1 -1 -2 -1 -0 -2 -2 -3 1 2 0 -3 -0 0 -1 -1 -2 -1 0 -1 0 1 0 -1 -0 -1 -0 -1 -2 -2 -2 -0 -0 -0 -1 -1 -1 0 0
-1 -0 -0 -0 1 0 2 1 1 -1 -0 1 -1 -3 -1 1 1 1 1 1 2 1 0 0 -0 -1 -1 -1 1 0 -1 -1 -3 -3 -1 0 1 -0 -1 -1 -1 -1 -0 -0
1 -1 0 -1 -2 -1 -0 0 0 0 1 1 1 -1 1 2 1 2 2 1 2 1 1 1 1 1 2 1 1 -1 -0 -0 0 -0 0 0 -0 -1 -0 -1 -0 0 0 0
0 -1 -1 -2 -1 -1 -0 1 1 0 1 1 1 1 2 0 -1 -1 -0 -2 1 1 1 0 3 1 0 -1 -0 1 5 1 2 2 1 1 0 -1 -1 1 1 1 0 1
1 -1 -2 1 -1 0 -2 1 -0 -1 0 1 1 -1 -1 -2 -1 1 -4 -2 -1 -0 0 1 2 0 -0 2 -1 4 3 -2 -1 -1 -1 -1 -0 2 1 1 0 0 -1 -2
1 1 1 0 1 0 1 4 2 1 -1 2 0 1 2 -0 -3 -1 -4 -3 -2 -1 -2 -2 -1 1 -1 3 -7 4 2 1 -3 -1 0 -2 -1 -2 -1 -1 0 0 1 -0
2 9 -5 -5 -4 -1 -0 4 2 2 -2 1 1 0 0 -0 -0 -2 -1 -0 0 3 0 -1 -0 2 4 -3 -1 -2 1 1 1 1 1 1 1 1 0 -1 -2 -2 -1 -1
-3 5 3 -9 -2 -1 -3 1 2 -0 3 -0 3 -2 0 -1 0 1 -2 1 -1 -2 -0 0 -5 -1 2 2 2 0 -0 -2 -1 -3 -4 -3 -2 -4 -3 -1 -1 -2 -1 -1
5 0 0 -4 -5 0 -3 -5 -1 3 0 1 -1 5 2 -0 0 -2 1 -1 -1 0 2 2 1 -3 -4 -1 -2 1 -0 -1 -2 -2 -1 -1 1 0 -1 -3 -1 -2 -3 -0
5 3 2 11 4 0 -4 -2 -4 -1 4 1 -1 3 1 1 2 0 -0 -0 0 -1 2 2 1 3 2 2 2 2 2 0 0 0 0 0 1 2 -1 2 0 -1 0 2
4 3 -3 6 -2 -5 8 -4 -3 2 -7 -4 3 -2 -1 3 -0 1 1 2 0 -2 -1 -1 -1 -0 1 -0 -1 -3 -2 -3 -1 -1 0 0 -0 1 4 -3 -3 2 -1 -0
-4 -12 3 10 3 -3 1 1 4 -2 -0 -1 -3 -6 -1 3 -1 0 0 -1 1 2 2 2 0 0 -1 -0 0 0 0 -1 2 -1 -1 -1 -1 -1 1 1 1 -1 -8 -1
3 -2 -5 17 -6 -6 -8 -3 6 1 -4 -5 -1 2 -8 -1 2 1 -1 0 3 0 -3 -1 -1 0 0 0 -1 -1 -1 -2 -0 -1 -2 -0 -0 -1 -1 -1 -1 -1 -2 1
-9 3 -2 -6 2 -4 2 -3 -0 -1 -0 4 -1 -4 -0 1 -2 -5 -4 2 -0 -1 2 -0 0 0 0 -0 -0 -0 -0 -1 1 1 -1 -1 -1 -0 -1 -2 -1 -1 -0 -3
3 -7 -4 0 1 -3 -7 -7 -1 4 -0 -5 -2 -4 -2 1 -2 1 1 1 -4 -2 -1 -1 0 2 1 -1 -0 1 0 0 1 2 1 1 1 -2 -4 -1 0 1 -1 -3
-3 -4 -4 -6 -2 6 -3 -11 -9 -4 1 -2 -3 -2 1 -2 -1 -1 1 2 0 1 2 1 -1 -3 -2 0 2 2 1 -0 1 4 1 1 0 -1 -2 -1 -1 1 -0 -0
-3 -4 -3 -7 -3 -3 -3 5 1 -4 -2 -1 0 -1 -1 -1 -2 -1 -0 1 2 1 -0 -1 0 0 1 3 3 3 2 2 1 -0 -1 -1 1 -0 -1 -1 0 -0 -1 0
0 -1 -3 1 -0 -1 5 -3 -0 1 -2 -1 1 2 2 3 3 4 3 4 0 1 1 4 5 3 4 2 1 2 0 1 2 1 0 0 -0 -0 -1 -1 1 2 2 0
-5 0 0 -3 -2 3 -5 -0 -3 0 -1 1 -1 2 5 4 3 3 1 3 3 6 8 6 3 1 -1 -1 1 0 -2 1 3 1 1 -1 0 -1 1 1 1 -1 0 1
-3 -0 1 0 -2 1 1 -1 -4 -1 0 4 -0 -0 0 3 3 3 3 3 8 -0 1 6 6 4 2 3 3 1 -2 -1 1 0 -0 -1 -1 -0 -0 0 0 -0 1 1
-3 -4 -2 -1 -0 -1 7 5 -0 -4 3 1 2 3 -1 5 4 1 6 1 5 4 -1 4 5 1 -2 -0 1 1 0 -0 -0 1 0 -1 -1 0 1 1 1 2 1 2
2 -1 -2 2 -4 -1 -0 11 -6 3 -1 3 5 4 -1 -0 8 3 -1 8 5 2 5 5 0 -0 -1 1 -0 -1 -1 -2 -1 -1 1 0 1 1 3 3 2 0 2 1
1 1 -2 -0 -2 1 -5 2 0 6 4 10 0 1 4 -2 -8 8 -3 -0 2 1 -0 1 0 1 -0 -0 0 -0 -0 -1 -2 0 1 0 -1 -2 -1 -1 -1 0 2 0
-0 -5 -5 -4 -1 -2 -3 -4 -7 3 -2 1 10 -1 -1 -1 -3 -7 -1 2 1 3 3 3 -1 -3 -4 -4 -3 -2 -3 -1 1 -2 -1 -1 -2 -2 -2 -1 -1 1 2 2
-2 -3 -8 -6 7 -8 -7 -0 -5 4 -3 -6 -5 9 1 -2 -3 -4 -6 -4 -3 -6 -3 1 1 0 0 -1 -1 -2 -1 2 2 -0 -2 -2 -1 0 -0 1 1 2 2 1
Height
5719 5719 5718 5718 5718 5717 5716 5715 5714 5713 5712 5710 5709 5708 5708 5708 5708 5709 5709 5709 5709 5710 5713 5715 5717 5717 5718 5718 5718 5717 5716 5714 5712 5710 5707 5704 5700 5696 5691 5687 5682 5677 5672 5667
5718 5718 5717 5717 5716 5715 5714 5712 5711 5710 5708 5707 5705 5705 5705 5706 5706 5705 5704 5704 5705 5707 5710 5712 5713 5714 5715 5715 5715 5714 5712 5711 5709 5706 5704 5700 5696 5693 5688 5684 5679 5674 5670 5666
5717 5716 5716 5716 5714 5713 5712 5710 5709 5707 5706 5705 5703 5703 5702 5701 5701 5700 5700 5700 5702 5705 5707 5709 5710 5710 5711 5711 5710 5710 5708 5707 5705 5703 5700 5696 5692 5688 5684 5680 5676 5672 5668 5664
5716 5715 5715 5713 5712 5710 5709 5707 5705 5703 5701 5700 5698 5697 5695 5697 5696 5696 5695 5696 5699 5702 5704 5705 5706 5706 5707 5707 5706 5706 5704 5703 5701 5698 5695 5691 5687 5683 5680 5676 5672 5668 5664 5660
5714 5712 5712 5710 5709 5707 5706 5705 5702 5700 5699 5697 5694 5691 5689 5691 5691 5691 5691 5693 5696 5698 5700 5702 5702 5703 5703 5703 5703 5702 5701 5698 5696 5693 5689 5686 5682 5678 5674 5671 5667 5663 5660 5655
5712 5710 5709 5707 5706 5705 5703 5702 5700 5699 5697 5694 5691 5688 5685 5685 5686 5686 5687 5690 5693 5695 5697 5698 5698 5699 5699 5698 5698 5697 5695 5692 5689 5686 5683 5679 5676 5672 5669 5665 5661 5657 5654 5650
5709 5708 5706 5705 5703 5702 5701 5703 5698 5696 5694 5692 5689 5686 5683 5683 5683 5683 5685 5688 5690 5691 5692 5693 5693 5693 5692 5692 5690 5690 5687 5684 5681 5678 5675 5672 5669 5666 5662 5659 5655 5652 5648 5644
5704 5703 5703 5699 5700 5700 5698 5696 5695 5693 5691 5690 5687 5685 5683 5682 5682 5682 5684 5685 5686 5687 5687 5687 5687 5686 5686 5684 5682 5682 5679 5676 5673 5670 5667 5663 5660 5656 5653 5649 5646 5642 5638 5634
5698 5697 5692 5693 5692 5692 5692 5691 5689 5688 5687 5686 5685 5683 5682 5680 5680 5680 5681 5682 5681 5682 5681 5680 5679 5679 5678 5674 5673 5672 5671 5668 5663 5660 5657 5654 5652 5648 5644 5641 5637 5633 5629 5625
5687 5689 5683 5682 5685 5685 5683 5683 5682 5681 5680 5679 5679 5678 5678 5677 5677 5676 5675 5675 5675 5674 5673 5672 5670 5669 5668 5665 5662 5662 5661 5658 5654 5650 5647 5645 5642 5638 5634 5630 5627 5623 5618 5613
5679 5681 5680 5675 5675 5675 5673 5673 5672 5671 5671 5671 5670 5669 5669 5669 5669 5668 5667 5665 5664 5663 5662 5661 5659 5657 5657 5655 5653 5652 5649 5645 5642 5639 5636 5633 5630 5627 5623 5619 5615 5611 5606 5601
5668 5670 5668 5671 5666 5663 5663 5661 5660 5660 5661 5659 5658 5659 5658 5658 5656 5656 5656 5655 5653 5652 5650 5649 5647 5645 5643 5642 5640 5638 5636 5632 5629 5626 5623 5620 5617 5614 5610 5605 5602 5597 5592 5588
5659 5661 5657 5657 5652 5651 5653 5651 5650 5649 5647 5648 5646 5644 5645 5646 5644 5643 5642 5640 5640 5639 5637 5636 5634 5631 5630 5627 5626 5625 5622 5619 5616 5613 5610 5606 5603 5600 5597 5593 5588 5584 5580 5575
5648 5644 5645 5647 5641 5638 5635 5637 5637 5636 5635 5633 5634 5632 5630 5630 5630 5628 5627 5626 5626 5624 5622 5620 5618 5617 5615 5613 5611 5609 5607 5604 5602 5599 5595 5592 5589 5586 5582 5579 5575 5572 5565 5561
5628 5628 5627 5627 5628 5627 5625 5621 5620 5618 5619 5619 5617 5617 5617 5616 5615 5614 5612 5611 5609 5608 5606 5605 5602 5601 5599 5597 5595 5593 5591 5589 5586 5583 5580 5577 5574 5571 5567 5564 5561 5557 5553 5549
5615 5612 5609 5608 5606 5604 5603 5604 5604 5602 5600 5600 5601 5600 5600 5599 5599 5598 5597 5595 5593 5591 5589 5588 5586 5585 5583 5581 5579 5577 5574 5572 5570 5567 5564 5561 5559 5556 5552 5549 5545 5541 5537 5533
5596 5594 5592 5587 5585 5584 5583 5582 5581 5580 5581 5580 5580 5580 5581 5580 5580 5580 5579 5578 5576 5574 5573 5571 5570 5568 5567 5565 5564 5561 5559 5557 5554 5552 5549 5546 5543 5541 5537 5534 5530 5526 5522 5517
5574 5573 5572 5570 5567 5563 5561 5560 5560 5559 5558 5559 5559 5559 5558 5558 5560 5560 5560 5558 5556 5556 5555 5553 5552 5551 5550 5548 5547 5545 5542 5539 5537 5535 5533 5530 5527 5524 5522 5519 5515 5512 5507 5503
5553 5552 5550 5547 5547 5547 5545 5542 5540 5539 5538 5538 5537 5537 5538 5538 5538 5538 5538 5537 5536 5536 5535 5533 5532 5532 5531 5530 5529 5527 5525 5522 5520 5517 5515 5513 5511 5508 5505 5502 5499 5496 5492 5487
5535 5532 5530 5530 5529 5527 5527 5524 5522 5521 5521 5521 5519 5519 5519 5519 5519 5518 5517 5517 5517 5516 5516 5515 5514 5512 5512 5510 5510 5509 5507 5505 5503 5501 5499 5496 5493 5490 5488 5485 5482 5479 5475 5472
5518 5516 5514 5513 5514 5512 5509 5508 5508 5506 5505 5505 5504 5503 5502 5501 5501 5500 5501 5501 5500 5499 5498 5497 5496 5494 5492 5492 5491 5490 5488 5487 5485 5483 5481 5478 5475 5473 5470 5467 5464 5461 5458 5455
5502 5502 5501 5499 5498 5498 5496 5492 5491 5492 5492 5491 5489 5488 5488 5487 5486 5486 5486 5485 5482 5481 5481 5481 5478 5475 5474 5474 5474 5472 5470 5469 5467 5465 5463 5461 5458 5455 5453 5450 5447 5443 5440 5437
5485 5484 5484 5483 5481 5481 5481 5478 5475 5476 5477 5476 5476 5475 5473 5473 5472 5472 5474 5469 5469 5467 5466 5466 5463 5461 5460 5460 5458 5456 5454 5453 5450 5448 5446 5443 5440 5437 5435 5432 5429 5425 5423 5419
5469 5466 5465 5464 5463 5462 5462 5463 5462 5461 5461 5463 5462 5460 5458 5457 5458 5457 5456 5456 5454 5452 5452 5451 5449 5447 5445 5445 5443 5441 5439 5437 5434 5431 5428 5425 5422 5419 5415 5412 5410 5408 5405 5402
5448 5447 5446 5444 5443 5443 5442 5443 5446 5446 5445 5446 5446 5445 5444 5442 5442 5444 5440 5440 5439 5438 5437 5436 5434 5432 5431 5430 5429 5426 5423 5421 5418 5415 5412 5408 5404 5401 5398 5395 5393 5390 5388 5385
5424 5424 5423 5423 5423 5422 5422 5421 5423 5425 5425 5427 5430 5428 5427 5426 5425 5425 5426 5426 5426 5425 5424 5423 5420 5418 5416 5414 5412 5411 5408 5406 5402 5399 5396 5392 5389 5386 5382 5379 5376 5373 5371 5368
5406 5405 5404 5405 5405 5403 5403 5401 5401 5404 5405 5406 5410 5411 5410 5410 5409 5408 5407 5407 5407 5406 5405 5404 5403 5401 5399 5398 5396 5394 5391 5389 5386 5384 5382 5378 5375 5371 5366 5363 5360 5358 5355 5353